Location: ??????
(41.3164°N, 22.6615°E)
Time: 03:13:13
(UTC+00:00)

UWE-3 - Pass Details

Date: 02 July 2022
Orbit: 583 x 677 km, 97.7° (Epoch: 11 August)

Event Time Altitude Azimuth Distance (km) Brightness Sun altitude
Rises 00:57:03 0° 28° (NNE) 2,902 ? -17.5°
Reaches altitude 10° 00:59:42 10° 45° (NE) 2,009 ? -17.2°
Maximum altitude 01:03:01 21° 94° (E) 1,442 ? -16.9°
Drops below altitude 10° 01:06:22 10° 143° (SE) 2,041 ? -16.5°
Enters shadow 01:07:51 - 154° (SSE) 2,529 ? -16.3°
